Stations météo

réclame
Mon MeteoGroup
Don Benito, Espagne (8333): Température de l'air & dewpoint: 15.01.2019 17:00:00 - 21.01.2019 17:00:00 (CET)Don Benito, Espagne (8333): Vitesse du vent & gusts: 15.01.2019 17:00:00 - 21.01.2019 17:00:00 (CET)Don Benito, Espagne (8333): Direction du vent: 15.01.2019 17:00:00 - 21.01.2019 17:00:00 (CET)Don Benito, Espagne (8333): reduced air pressure: 15.01.2019 17:00:00 - 21.01.2019 17:00:00 (CET)Don Benito, Espagne (8333): visibility: 15.01.2019 17:00:00 - 21.01.2019 17:00:00 (CET)Don Benito, Espagne (8333): Ensoleillement: 15.01.2019 17:00:00 - 21.01.2019 17:00:00 (CET)Don Benito, Espagne (8333): Quantités de précipitations: 15.01.2019 17:00:00 - 21.01.2019 17:00:00 (CET)
Date & Time tt [°C] td [°C] ff [km/h] ff [knt] fx [km/h] fx [knt] dd ppp [hPa] vv [km] sd [min] rr [mm]
21.01.2019 17:00:00 - - - - - - - - - - -
21.01.2019 16:00:00 13,3 1,7 3 2 10 6 W 1021,7 20 60 0,0
21.01.2019 15:00:00 12,5 3,2 3 2 12 6 WSW 1022,2 20 60 0,0
21.01.2019 14:00:00 10,7 3,8 4 2 21 11 WNW 1022,9 20 60 0,0
21.01.2019 13:00:00 9,2 3,0 5 3 12 6 W 1023,7 20 60 -
21.01.2019 12:00:00 7,4 3,0 4 2 12 7 WNW 1024,2 20 60 0,0
21.01.2019 11:00:00 6,9 3,4 5 3 10 6 WSW 1023,5 13 60 0,0
21.01.2019 10:00:00 4,4 2,5 5 3 10 6 SSW 1023,3 20 57 0,0
21.01.2019 09:00:00 2,4 1,3 8 5 12 7 SSW 1023,2 20 0 0,0
21.01.2019 08:00:00 2,1 0,9 5 3 9 5 SSW 1022,6 20 0 0,0
21.01.2019 07:00:00 2,6 1,1 4 2 11 6 SSW 1022,1 20 0 -
21.01.2019 06:00:00 2,8 1,1 8 4 12 7 SW 1021,8 20 0 0,0
21.01.2019 05:00:00 3,2 1,5 8 4 12 7 SW 1021,7 20 0 0,0
21.01.2019 04:00:00 3,7 1,5 10 5 14 8 SW 1021,7 20 0 0,0
21.01.2019 03:00:00 4,6 1,9 6 3 16 9 SW 1021,5 20 0 0,0
21.01.2019 02:00:00 5,0 1,7 8 5 15 8 SSW 1021,7 20 0 0,0
21.01.2019 01:00:00 5,6 1,7 7 4 17 9 SW 1021,4 20 0 -
21.01.2019 00:00:00 5,9 2,1 8 4 12 7 SE 1021,1 20 0 0,0
20.01.2019 23:00:00 6,2 2,5 4 2 10 5 SSW 1020,5 20 0 0,0
20.01.2019 22:00:00 7,5 2,1 5 3 9 5 WNW 1019,6 20 0 0,0
20.01.2019 21:00:00 8,3 2,9 3 2 14 7 W 1019,3 20 0 0,0
20.01.2019 20:00:00 9,4 2,9 5 3 16 9 NNW 1018,6 20 0 0,0
20.01.2019 19:00:00 10,9 3,2 7 4 19 11 NW 1017,7 20 25 -
20.01.2019 18:00:00 12,8 2,1 9 5 27 15 NNW 1016,9 20 49 0,0
20.01.2019 17:00:00 13,7 1,9 12 7 28 15 NNW 1016,3 20 60 0,0
20.01.2019 16:00:00 14,1 2,3 12 6 31 17 NNW 1015,7 20 60 0,0
20.01.2019 15:00:00 13,9 3,6 13 7 29 16 N 1015,7 20 59 0,0
20.01.2019 14:00:00 14,0 4,3 13 7 35 19 NNW 1015,8 20 60 0,0
20.01.2019 13:00:00 12,8 5,0 14 7 33 18 NNW 1016,0 20 60 -
20.01.2019 12:00:00 11,6 5,5 12 7 32 17 N 1015,8 20 60 0,0
20.01.2019 11:00:00 10,6 5,1 9 5 23 13 NNW 1014,9 20 60 0,0
20.01.2019 10:00:00 9,3 5,5 12 6 25 13 NW 1013,7 20 33 0,2
20.01.2019 09:00:00 8,8 6,4 11 6 22 12 WSW 1012,7 20 0 0,0
20.01.2019 08:00:00 9,7 7,3 9 5 30 16 WSW 1011,6 20 0 0,0
20.01.2019 07:00:00 10,6 9,6 11 6 26 14 WNW 1010,4 20 0 -
20.01.2019 06:00:00 10,8 10,0 10 6 25 13 W 1010,1 20 0 0,0
20.01.2019 05:00:00 11,0 10,0 12 6 30 16 W 1010,0 20 0 0,0
20.01.2019 04:00:00 10,9 10,2 13 7 32 17 WSW 1010,2 20 0 0,0
20.01.2019 03:00:00 10,8 10,0 16 9 33 18 WSW 1010,3 20 0 0,0
20.01.2019 02:00:00 10,9 10,3 13 7 28 15 WSW 1010,7 20 0 0,0
20.01.2019 01:00:00 10,9 10,2 13 7 24 13 WSW 1011,3 11 0 -
20.01.2019 00:00:00 10,5 9,6 9 5 18 10 SW 1011,4 20 0 0,0
19.01.2019 23:00:00 10,2 8,9 11 6 23 12 SSW 1011,7 20 0 1,0
19.01.2019 22:00:00 10,8 9,2 15 8 39 21 SW 1011,7 20 0 0,8
19.01.2019 21:00:00 10,9 9,9 17 9 34 19 SSW 1011,9 7 0 6,6
19.01.2019 20:00:00 10,3 9,4 10 5 26 14 SSW 1012,0 4,8 0 0,8
19.01.2019 19:00:00 10,1 9,0 5 3 12 6 SSW 1013,0 20 0 -
19.01.2019 18:00:00 10,0 8,7 1 1 8 5 E 1013,9 7 0 0,2
19.01.2019 17:00:00 10,0 8,1 8 4 15 8 SW 1014,7 13 0 0,2
19.01.2019 16:00:00 10,0 7,4 3 2 10 5 W 1015,6 20 0 0,0
19.01.2019 15:00:00 10,0 6,8 7 4 16 9 SSW 1016,3 18 0 0,0
19.01.2019 14:00:00 9,9 6,1 5 3 12 7 SW 1017,8 20 13 0,0
19.01.2019 13:00:00 8,3 5,0 6 3 13 7 SSE 1019,0 18 0 -
19.01.2019 12:00:00 7,6 4,3 4 2 7 4 ESE 1019,9 19 0 0,0
19.01.2019 11:00:00 6,0 3,4 4 2 8 5 NNW 1020,4 11 0 0,0
19.01.2019 10:00:00 6,1 3,2 3 1 7 4 NE 1019,8 20 0 0,0
19.01.2019 09:00:00 5,5 3,2 4 2 7 4 NE 1019,4 14 0 0,0
19.01.2019 08:00:00 5,3 3,2 2 1 5 3 NNE 1019,3 17 0 0,0
19.01.2019 07:00:00 5,6 2,9 2 1 8 4 SW 1019,2 20 0 -
19.01.2019 06:00:00 5,6 3,0 4 2 7 4 S 1019,2 20 0 0,0
19.01.2019 05:00:00 5,9 3,2 3 1 6 3 WSW 1019,7 20 0 0,0
19.01.2019 04:00:00 5,7 2,9 3 2 5 3 SSW 1019,7 20 0 0,0
19.01.2019 03:00:00 5,7 2,9 2 1 6 3 W 1020,1 20 0 0,0
19.01.2019 02:00:00 4,4 1,7 1 1 10 5 S 1020,1 20 0 0,0
19.01.2019 01:00:00 5,1 2,7 6 3 9 5 S 1020,2 20 0 -
19.01.2019 00:00:00 6,3 2,7 4 2 9 5 W 1020,3 20 0 0,0
18.01.2019 23:00:00 7,1 3,0 6 4 14 8 WSW 1020,0 20 0 0,0
18.01.2019 22:00:00 7,3 1,9 7 4 10 6 SW 1019,8 20 0 0,0
18.01.2019 21:00:00 7,7 2,1 3 2 9 5 SSW 1019,9 12 0 0,0
18.01.2019 20:00:00 8,2 1,9 4 2 8 4 WSW 1019,6 12 0 0,0
18.01.2019 19:00:00 9,3 1,9 5 3 16 9 WSW 1019,4 14 7 -
18.01.2019 18:00:00 10,6 1,7 10 6 20 11 SW 1019,3 16 18 0,0
18.01.2019 17:00:00 10,8 3,6 9 5 16 9 SW 1019,5 13 0 0,0
18.01.2019 16:00:00 11,3 4,5 6 3 15 8 WSW 1019,8 13 58 0,0
18.01.2019 15:00:00 9,3 4,1 5 3 11 6 WNW 1020,8 9 41 0,0
18.01.2019 14:00:00 6,5 3,9 3 1 13 7 WNW 1022,0 6 36 0,0
18.01.2019 13:00:00 5,3 3,4 4 2 7 4 N 1022,9 6 35 -
18.01.2019 12:00:00 2,8 2,1 1 1 6 3 NW 1023,7 4,4 10 0,0
18.01.2019 11:00:00 1,0 0,2 2 1 10 5 NE 1023,9 0,3 1 0,0
18.01.2019 10:00:00 0,2 -0,5 3 2 10 5 N 1023,0 0,2 26 0,0
18.01.2019 09:00:00 0,6 0,0 6 4 10 5 SE 1022,7 0,1 0 0,0
18.01.2019 08:00:00 0,6 -0,3 2 1 5 3 S 1022,6 0,2 0 0,0
18.01.2019 07:00:00 0,7 -0,3 2 1 4 2 SSW 1021,9 0,6 0 -
18.01.2019 06:00:00 1,0 0,0 1 1 5 3 SSW 1022,0 0,2 0 0,0
18.01.2019 05:00:00 1,2 0,0 0 0 9 5 N 1021,9 3,5 0 0,0
18.01.2019 04:00:00 1,8 0,4 3 2 8 4 SSW 1022,2 3,1 0 0,0
18.01.2019 03:00:00 2,6 1,3 3 1 7 4 ENE 1022,0 4,9 0 0,0
18.01.2019 02:00:00 3,4 1,9 5 3 10 6 S 1021,9 4,4 0 0,0
18.01.2019 01:00:00 4,0 2,5 3 1 9 5 ESE 1022,0 3,8 0 -
18.01.2019 00:00:00 4,7 2,5 2 1 6 3 S 1021,9 5 0 0,0
17.01.2019 23:00:00 5,9 3,6 1 1 8 4 SSE 1021,4 7 0 0,0
17.01.2019 22:00:00 7,1 3,9 3 1 5 3 SW 1020,7 7 0 0,0
17.01.2019 21:00:00 8,4 4,6 1 1 6 3 E 1020,2 10 0 0,0
17.01.2019 20:00:00 9,6 5,0 2 1 9 5 NNE 1019,6 12 0 0,0
17.01.2019 19:00:00 10,6 5,0 4 2 14 8 NNE 1019,1 15 0 -
17.01.2019 18:00:00 11,8 4,1 3 2 8 5 NNE 1018,6 18 19 0,0
17.01.2019 17:00:00 12,2 3,9 3 1 12 6 N 1018,3 20 18 0,0
17.01.2019 16:00:00 13,1 3,9 5 3 10 6 W 1018,0 18 57 0,0
17.01.2019 15:00:00 11,9 4,8 2 1 9 5 ENE 1018,2 14 42 0,0
17.01.2019 14:00:00 11,9 5,1 4 2 11 6 SSW 1018,8 8 46 0,0
17.01.2019 13:00:00 11,3 5,1 4 2 9 5 E 1019,6 15 49 -
17.01.2019 12:00:00 8,8 6,1 3 2 10 6 NW 1020,5 7 2 0,0
17.01.2019 11:00:00 7,8 5,9 3 2 9 5 W 1020,6 5 0 0,0
17.01.2019 10:00:00 7,1 5,6 3 2 6 4 W 1019,7 2,7 0 0,0
17.01.2019 09:00:00 6,6 5,0 4 2 6 4 SSE 1019,3 4,9 0 0,0
17.01.2019 08:00:00 6,7 5,0 1 1 4 2 WSW 1019,2 4,3 0 0,0
17.01.2019 07:00:00 6,6 5,0 3 1 6 3 SSW 1018,8 6 0 -
17.01.2019 06:00:00 6,3 4,6 0 0 6 4 N 1018,7 4,7 0 0,0
17.01.2019 05:00:00 6,4 4,6 1 1 4 2 ESE 1018,9 4,6 0 0,0
17.01.2019 04:00:00 6,4 4,6 0 0 7 4 N 1019,2 5 0 0,0
17.01.2019 03:00:00 6,2 4,5 3 1 9 5 SSE 1019,4 5 0 0,0
17.01.2019 02:00:00 6,0 4,5 5 3 9 5 SSE 1019,7 4,7 0 0,0
17.01.2019 01:00:00 5,6 4,1 1 1 4 2 E 1020,1 3,7 0 -
17.01.2019 00:00:00 5,4 3,4 1 1 5 3 E 1020,1 3,0 0 0,0
16.01.2019 23:00:00 6,6 4,3 1 1 8 4 E 1019,8 4,7 0 0,0
16.01.2019 22:00:00 7,8 5,1 4 2 10 5 SSE 1019,7 5 0 0,0
16.01.2019 21:00:00 8,9 5,5 3 2 12 6 SSE 1019,5 6 0 0,0
16.01.2019 20:00:00 9,5 5,6 2 1 8 4 ENE 1019,5 8 0 0,0
16.01.2019 19:00:00 9,9 5,6 3 2 6 3 N 1019,3 8 0 -
16.01.2019 18:00:00 10,5 5,6 4 2 11 6 N 1019,0 11 0 0,0
16.01.2019 17:00:00 11,2 5,1 4 2 8 5 NNW 1019,0 15 18 0,0
16.01.2019 16:00:00 11,0 5,1 4 2 12 7 NNW 1019,1 14 15 0,0
16.01.2019 15:00:00 10,7 5,5 4 2 10 5 NNE 1019,3 13 19 0,0
16.01.2019 14:00:00 9,5 5,1 5 3 10 5 ENE 1020,3 12 0 0,0
16.01.2019 13:00:00 8,3 4,6 4 2 10 6 ENE 1021,2 10 0 -
16.01.2019 12:00:00 6,7 3,4 7 4 12 7 E 1022,0 12 1 0,0
16.01.2019 11:00:00 5,4 3,9 6 3 14 8 E 1022,0 7 0 0,0
16.01.2019 10:00:00 3,6 2,7 5 3 9 5 E 1022,0 11 0 0,0
16.01.2019 09:00:00 1,8 0,9 1 1 5 3 S 1022,0 3,5 0 0,0
16.01.2019 08:00:00 0,7 -0,3 1 1 2 1 ESE 1021,9 0,9 0 0,0
16.01.2019 07:00:00 0,9 -0,3 1 1 5 3 WNW 1021,4 5 0 -
16.01.2019 06:00:00 1,7 0,4 1 1 4 2 WNW 1021,4 3,7 0 0,0
16.01.2019 05:00:00 2,7 1,1 1 1 6 3 NE 1021,6 5 0 0,0
16.01.2019 04:00:00 3,6 1,9 1 1 6 3 E 1021,7 6 0 0,0
16.01.2019 03:00:00 4,1 2,3 3 2 6 4 WSW 1021,9 7 0 0,0
16.01.2019 02:00:00 4,5 2,3 4 2 9 5 SW 1022,0 11 0 0,0
16.01.2019 01:00:00 5,2 2,7 4 2 10 6 SW 1022,1 8 0 -
16.01.2019 00:00:00 5,6 2,7 5 3 11 6 SSW 1021,9 8 0 0,0
15.01.2019 23:00:00 6,1 2,9 7 4 12 6 SSW 1021,6 10 0 0,0
15.01.2019 22:00:00 6,6 2,7 7 4 10 6 SW 1021,1 9 0 0,0
15.01.2019 21:00:00 7,5 2,9 5 3 10 5 SW 1020,9 9 0 0,0
15.01.2019 20:00:00 8,6 3,0 3 1 8 4 S 1020,3 9 0 0,0
15.01.2019 19:00:00 11,1 2,9 4 2 6 3 WSW 1019,7 14 1 -
15.01.2019 18:00:00 13,3 3,6 3 1 5 3 WNW 1019,2 20 36 0,0
15.01.2019 17:00:00 14,6 3,0 3 2 10 5 NW 1018,9 20 60 0,0

tt = Température de l'air
td = dewpoint
ff = Vitesse du vent
fx = gusts
dd = Direction du vent
ppp = reduced air pressure
vv = visibility
sd = Ensoleillement
rr = Quantités de précipitations

stations d'obs. à proximité